Location: Newark
(49.8348°N, 24.0280°E)
Time: 04:13:50
(UTC+00:00)

Transit 2A - All Passes

Search period start: 20 January 2020 00:00
Search period end: 30 January 2020 00:00
Orbit: 601 x 957 km, 66.7° (Epoch: 19 January)

Date Brightness Start Highest point End Pass type
(mag) Time Alt. Az. Time Alt. Az. Time Alt. Az.
20 Jan - 00:52:38 10° N 00:53:27 10° NNE 00:54:17 10° NNE visible
20 Jan - 02:34:19 10° NNW 02:38:12 26° NE 02:42:18 10° E visible
20 Jan - 04:17:03 10° NW 04:21:42 66° WSW 04:26:45 10° SSE visible
20 Jan - 06:03:24 10° W 06:04:05 10° WSW 06:04:45 10° WSW daylight
20 Jan - 19:02:07 10° S 19:06:05 33° ESE 19:10:00 10° NE night (unlit)
20 Jan - 20:45:05 10° WSW 20:49:10 37° NW 20:53:15 10° NNE night (unlit)
20 Jan - 22:31:49 10° NW 22:33:35 12° NNW 22:35:22 10° N night (unlit)
21 Jan - 02:00:21 10° NNW 02:03:51 21° NNE 02:07:31 10° E visible
21 Jan - 03:42:54 10° NW 03:47:35 88° ENE 03:52:42 10° SE visible
21 Jan - 05:27:23 10° WNW 05:30:12 15° WSW 05:33:07 10° SW visible
21 Jan - 18:28:38 10° SSE 18:32:06 23° ESE 18:35:31 10° ENE night (unlit)
21 Jan - 20:10:39 10° SW 20:14:55 51° NW 20:19:12 10° NNE night (unlit)
21 Jan - 21:56:44 10° WNW 21:59:07 14° NNW 22:01:31 10° N night (unlit)
22 Jan - 01:26:25 10° NNW 01:29:27 17° NNE 01:32:37 10° ENE visible
22 Jan - 03:08:48 10° NNW 03:13:25 65° NE 03:18:29 10° SE visible
22 Jan - 04:52:35 10° WNW 04:56:15 22° WSW 05:00:08 10° SSW visible
22 Jan - 17:55:34 10° SE 17:58:11 16° ESE 18:00:46 10° ENE night (unlit)
22 Jan - 19:36:22 10° SW 19:40:45 73° NW 19:45:07 10° NNE night (unlit)
22 Jan - 21:21:46 10° WNW 21:24:40 17° NNW 21:27:37 10° NNE night (unlit)
23 Jan - 00:52:29 10° N 00:55:01 14° NNE 00:57:37 10° ENE visible
23 Jan - 02:34:45 10° NNW 02:39:14 47° NE 02:44:06 10° ESE visible
23 Jan - 04:18:05 10° NW 04:22:15 31° WSW 04:26:46 10° S visible
23 Jan - 17:23:45 10° ESE 17:24:18 10° ESE 17:24:51 10° E night (unlit)
23 Jan - 19:02:14 10° SSW 19:06:37 78° SE 19:10:59 10° NE night (unlit)
23 Jan - 20:46:55 10° W 20:50:16 21° NNW 20:53:40 10° NNE night (unlit)
24 Jan - 00:18:37 10° N 00:20:31 12° NNE 00:22:29 10° NE night (unlit)
24 Jan - 02:00:43 10° NNW 02:04:59 36° NE 02:09:36 10° ESE visible
24 Jan - 03:43:45 10° NW 03:48:13 44° WSW 03:53:07 10° S visible
24 Jan - 18:28:16 10° SSW 18:32:32 53° ESE 18:36:47 10° NE visible
24 Jan - 20:12:13 10° W 20:15:56 27° NW 20:19:41 10° NNE night (unlit)
24 Jan - 21:59:50 10° NNW 22:00:39 10° NNW 22:01:29 10° N night (unlit)
24 Jan - 23:44:49 10° N 23:46:00 11° NNE 23:47:12 10° NNE night (unlit)
25 Jan - 01:26:43 10° NNW 01:30:42 28° NE 01:34:58 10° E visible
25 Jan - 03:09:30 10° NW 03:14:10 62° WSW 03:19:16 10° SSE visible
25 Jan - 17:54:29 10° S 17:58:30 36° ESE 18:02:29 10° NE visible
25 Jan - 19:37:37 10° WSW 19:41:38 35° NW 19:45:41 10° NNE night (unlit)
25 Jan - 21:24:28 10° NW 21:26:08 12° NNW 21:27:49 10° N night (unlit)
26 Jan - 00:52:44 10° NNW 00:56:22 22° NE 01:00:12 10° E night (unlit)
26 Jan - 02:35:20 10° NW 02:40:03 86° WSW 02:45:14 10° SSE visible
26 Jan - 04:20:00 10° WNW 04:22:38 15° WSW 04:25:22 10° SW visible
26 Jan - 17:20:58 10° SSE 17:24:31 25° ESE 17:28:04 10° ENE visible
26 Jan - 19:03:10 10° WSW 19:07:23 48° NW 19:11:39 10° NNE visible
26 Jan - 20:49:21 10° NW 20:51:38 14° NNW 20:53:57 10° N night (unlit)
27 Jan - 00:18:47 10° NNW 00:21:58 18° NNE 00:25:20 10° ENE night (unlit)
27 Jan - 02:01:13 10° NNW 02:05:54 69° NE 02:11:03 10° SE visible
27 Jan - 03:45:07 10° WNW 03:48:42 21° WSW 03:52:30 10° SSW visible
27 Jan - 16:47:46 10° SSE 16:50:35 17° ESE 16:53:23 10° ENE visible
27 Jan - 18:28:51 10° SW 18:33:12 68° NW 18:37:34 10° NNE visible
27 Jan - 20:14:22 10° WNW 20:17:11 16° NNW 20:20:03 10° NNE night (unlit)
27 Jan - 23:44:51 10° N 23:47:32 15° NNE 23:50:21 10° ENE night (unlit)
28 Jan - 01:27:09 10° NNW 01:31:43 51° NE 01:36:42 10° SE visible
28 Jan - 03:10:34 10° NW 03:14:43 29° WSW 03:19:11 10° S visible
28 Jan - 16:15:23 10° ESE 16:16:42 11° ESE 16:18:00 10° E visible
28 Jan - 17:54:41 10° SSW 17:59:04 84° ESE 18:03:27 10° NE visible
28 Jan - 19:39:31 10° W 19:42:47 20° NNW 19:46:06 10° NNE visible
28 Jan - 23:10:56 10° N 23:13:05 13° NNE 23:15:16 10° NE night (unlit)
29 Jan - 00:53:07 10° NNW 00:57:29 38° NE 01:02:13 10° ESE night (unlit)
29 Jan - 02:36:12 10° NW 02:40:41 41° WSW 02:45:35 10° S visible
29 Jan - 17:20:41 10° SSW 17:24:58 57° ESE 17:29:16 10° NE visible
29 Jan - 19:04:46 10° W 19:08:25 25° NW 19:12:08 10° NNE visible
29 Jan - 20:52:29 10° NNW 20:53:12 10° NNW 20:53:56 10° N night (unlit)
29 Jan - 22:37:05 10° N 22:38:34 11° NNE 22:40:03 10° NE night (unlit)
